Weather History for KIPL - September, 2014

Change the Weather History Date:

Wednesday, September 3, 2014

  Actual Average Record
Temperature  
Mean Temperature 92 °F -  
Max Temperature 107 °F 104 °F 118 °F (1948)
Min Temperature 78 °F 76 °F 63 °F (1964)
Cooling Degree Days 28    
Growing Degree Days 42 (Base 50)    
Moisture  
Dew Point 52 °F    
Average Humidity 29    
Maximum Humidity 62    
Minimum Humidity 12    
Precipitation  
Precipitation 0.00 in - - ()
Sea Level Pressure  
Sea Level Pressure 29.60 in    
Wind  
Wind Speed 6 mph (South)    
Max Wind Speed 9 mph    
Max Gust Speed -    
Visibility 10 miles    
Events      
Averages and records for this station are not official NWS values.
T = Trace of Precipitation, MM = Missing Value Source: NWS Daily Summary

Daily Weather History Graph

Daily Weather History Graph

Search for Another Location

Airport or City:

Trip Planner

Search our weather history database for the weather conditions in past years. The results will help you decide how hot, cold, wet, or windy it might be!

Date:

Astronomy

Sep. 03, 2014 Rise Set
Actual Time 6:18 AM PDT 7:04 PM PDT
Civil Twilight 5:53 AM PDT 7:29 PM PDT
Nautical Twilight 5:23 AM PDT 7:58 PM PDT
Astronomical Twilight 4:53 AM PDT 8:29 PM PDT
Moon 2:40 PM PDT (9/3) 12:26 AM PDT (9/3)
Length of Visible Light 13h 36m
Length of Day
12h 46m
Waxing Gibbous, 65% of the Moon is Illuminated
Sep 3
Waxing Gibbous
Sep 8
Full
Sep 15
Last Quarter
Sep 23
New
Oct 1
First Quarter

Hourly Weather History & Observations

Time (PDT) Temp. Heat Index Dew Point Humidity Pressure Visibility Wind Dir Wind Speed Gust Speed Precip Events Conditions
12:53 AM 86.0 °F - 46.0 °F 25% 29.64 in 10.0 mi West 8.1 mph - N/A   Clear
1:53 AM 84.0 °F - 46.0 °F 26% 29.64 in 10.0 mi SW 6.9 mph - N/A   Clear
2:53 AM 82.9 °F 82.1 °F 55.9 °F 39% 29.63 in 10.0 mi SW 9.2 mph - N/A   Clear
3:53 AM 80.1 °F 81.5 °F 63.0 °F 56% 29.62 in 10.0 mi SSW 9.2 mph - N/A   Clear
4:53 AM 80.1 °F 82.1 °F 66.0 °F 62% 29.63 in 10.0 mi SSW 4.6 mph - N/A   Clear
5:53 AM 79.0 °F - 59.0 °F 50% 29.64 in 10.0 mi SE 6.9 mph - N/A   Clear
6:53 AM 78.1 °F - 59.0 °F 52% 29.66 in 10.0 mi SSE 4.6 mph - N/A   Clear
7:53 AM 80.1 °F 81.7 °F 64.0 °F 58% 29.67 in 10.0 mi Calm Calm - N/A   Clear
8:53 AM 87.1 °F 90.6 °F 68.0 °F 53% 29.68 in 10.0 mi ESE 5.8 mph - N/A   Clear
9:53 AM 93.0 °F 91.4 °F 55.9 °F 29% 29.67 in 10.0 mi Calm Calm - N/A   Clear
10:53 AM 96.1 °F - 48.9 °F 20% 29.67 in 10.0 mi ESE 4.6 mph - N/A   Clear
11:53 AM 98.1 °F - 52.0 °F 21% 29.64 in 10.0 mi Variable 4.6 mph - N/A   Clear
12:53 PM 100.9 °F - 51.1 °F 19% 29.62 in 10.0 mi Variable 3.5 mph - N/A   Clear
1:53 PM 102.9 °F - 48.0 °F 16% 29.59 in 10.0 mi SSE 6.9 mph - N/A   Clear
2:53 PM 105.1 °F - 43.0 °F 12% 29.56 in 10.0 mi South 5.8 mph - N/A   Clear
3:53 PM 107.1 °F - 46.0 °F 13% 29.53 in 10.0 mi Variable 4.6 mph - N/A   Clear
4:53 PM 107.1 °F - 46.0 °F 13% 29.52 in 10.0 mi Variable 5.8 mph - N/A   Clear
5:53 PM 106.0 °F - 46.0 °F 13% 29.51 in 10.0 mi East 5.8 mph - N/A   Clear
6:53 PM 105.1 °F - 48.0 °F 15% 29.50 in 10.0 mi ESE 4.6 mph - N/A   Clear
7:53 PM 95.0 °F - 48.9 °F 21% 29.52 in 10.0 mi West 9.2 mph - N/A   Clear
8:53 PM 91.0 °F - 48.9 °F 23% 29.54 in 10.0 mi West 8.1 mph - N/A   Clear
9:53 PM 89.1 °F - 48.0 °F 24% 29.55 in 10.0 mi West 8.1 mph - N/A   Clear
10:53 PM 89.1 °F - 46.0 °F 22% 29.55 in 10.0 mi WNW 6.9 mph - N/A   Clear
11:53 PM 90.0 °F - 44.1 °F 20% 29.55 in 10.0 mi Calm Calm - N/A   Clear